McConnell AFB, KS

8:08 AM CDT on July 23, 2019 (GMT -0500)
McConnell Air Force Base

Weather History for KIAB - May, 2019

Change the Weather History Date:

Tuesday, May 7, 2019

  Actual Average Record
Temperature  
Mean Temperature 64 °F -  
Max Temperature 69 °F 73 °F 93 °F (2014)
Min Temperature 59 °F 52 °F 44 °F (1999)
Growing Degree Days 14 (Base 50)    
Moisture  
Dew Point 61 °F    
Average Humidity 91    
Maximum Humidity 100    
Minimum Humidity 78    
Precipitation  
Precipitation 2.16 in - - ()
Sea Level Pressure  
Sea Level Pressure 29.92 in    
Wind  
Wind Speed 12 mph (NNE)    
Max Wind Speed 29 mph    
Max Gust Speed 37 mph    
Visibility 8 miles    
Events Rain , Thunderstorm    
Averages and records for this station are not official NWS values.
T = Trace of Precipitation, MM = Missing Value Source: NWS Daily Summary

Daily Weather History Graph

Daily Weather History Graph

Search for Another Location

Airport or City:

Astronomy

May. 07, 2019 Rise Set
Actual Time 6:27 AM CDT 8:24 PM CDT
Civil Twilight 5:58 AM CDT 8:53 PM CDT
Nautical Twilight 5:23 AM CDT 9:28 PM CDT
Astronomical Twilight 4:46 AM CDT 10:05 PM CDT
Moon 8:35 AM CDT (5/7) 11:24 PM CDT (5/7)
Length of Visible Light 14h 54m
Length of Day
13h 57m
Waxing Crescent, 9% of the Moon is Illuminated
May 7
Waxing Crescent
May 11
First Quarter
May 18
Full
May 26
Last Quarter
Jun 3
New

Hourly Weather History & Observations

Time (CDT) Temp. Dew Point Humidity Pressure Visibility Wind Dir Wind Speed Gust Speed Precip Events Conditions
12:56 AM 70.0 °F 63.5 °F 80% 29.90 in 10.0 mi East 9.2 mph - N/A   Clear
1:33 AM 69.8 °F 62.6 °F 78% 29.93 in 10.0 mi ESE 9.2 mph - N/A Thunderstorm Thunderstorm
1:48 AM 69.8 °F 62.6 °F 78% 29.93 in 10.0 mi East 5.8 mph - N/A Rain , Thunderstorm Light Thunderstorms and Rain
2:00 AM 68.0 °F 62.6 °F 83% 29.95 in 10.0 mi ENE 3.5 mph - N/A Thunderstorm Thunderstorm
2:07 AM 68.0 °F 60.8 °F 78% 29.98 in 10.0 mi West 20.7 mph 28.8 mph N/A Rain , Thunderstorm Light Thunderstorms and Rain
2:12 AM 66.2 °F 59.0 °F 78% 30.00 in 7.0 mi WNW 24.2 mph 29.9 mph N/A Rain , Thunderstorm Heavy Thunderstorms and Rain
2:17 AM 62.6 °F 59.0 °F 88% 29.99 in 2.2 mi WNW 19.6 mph 29.9 mph N/A Rain , Thunderstorm Heavy Thunderstorms and Rain
2:19 AM 62.6 °F 59.0 °F 88% 29.98 in 2.0 mi NW 15.0 mph 29.9 mph N/A Rain , Thunderstorm Heavy Thunderstorms and Rain
2:22 AM 60.8 °F 57.2 °F 88% 29.98 in 3.0 mi NNW 13.8 mph 29.9 mph N/A Rain , Thunderstorm Heavy Thunderstorms and Rain
2:56 AM 59.4 °F 58.5 °F 97% 29.99 in 10.0 mi NNE 10.4 mph - 0.29 in   Mostly Cloudy
3:56 AM 60.1 °F 58.1 °F 93% 29.98 in 10.0 mi ENE 11.5 mph - N/A   Overcast
4:56 AM 60.3 °F 57.6 °F 91% 29.99 in 10.0 mi East 12.7 mph - N/A   Overcast
5:56 AM 60.4 °F 58.5 °F 93% 29.99 in 10.0 mi East 12.7 mph - N/A   Overcast
6:56 AM 60.8 °F 58.1 °F 91% 30.02 in 10.0 mi East 5.8 mph - N/A   Overcast
7:08 AM 60.8 °F 59.0 °F 94% 30.01 in 10.0 mi East 9.2 mph - N/A Thunderstorm Thunderstorm
7:24 AM 60.8 °F 59.0 °F 94% 30.03 in 10.0 mi East 8.1 mph - N/A Thunderstorm Overcast
7:34 AM 60.8 °F 59.0 °F 94% 30.03 in 10.0 mi ESE 10.4 mph - N/A Rain , Thunderstorm Light Rain
7:39 AM 60.8 °F 59.0 °F 94% 30.04 in 10.0 mi ESE 10.4 mph - N/A Rain Light Rain
7:51 AM 60.8 °F 59.0 °F 94% 30.04 in 10.0 mi SE 8.1 mph - N/A Rain , Thunderstorm Light Thunderstorms and Rain
7:56 AM 61.2 °F 59.7 °F 95% 30.04 in 10.0 mi ESE 12.7 mph - 0.01 in Rain , Thunderstorm Light Thunderstorms and Rain
8:03 AM 60.8 °F 59.0 °F 94% 30.03 in 10.0 mi East 13.8 mph - N/A Rain , Thunderstorm Light Thunderstorms and Rain
8:07 AM 60.8 °F 59.0 °F 94% 30.03 in 7.0 mi East 11.5 mph - N/A Rain Light Rain
8:56 AM 60.4 °F 58.5 °F 93% 29.99 in 10.0 mi East 21.9 mph 29.9 mph 0.07 in Rain , Thunderstorm Light Rain
9:42 AM 60.8 °F 57.2 °F 88% 30.00 in 10.0 mi East 24.2 mph 31.1 mph N/A Rain , Thunderstorm Light Thunderstorms and Rain
9:56 AM 59.9 °F 57.9 °F 93% 30.00 in 5.0 mi East 26.5 mph 33.4 mph 0.09 in Rain , Thunderstorm Light Thunderstorms and Rain
10:06 AM 59.0 °F 57.2 °F 94% 30.00 in 8.0 mi ESE 28.8 mph 35.7 mph N/A Rain Light Rain
10:50 AM 59.0 °F 57.2 °F 94% 29.93 in 10.0 mi East 16.1 mph 36.8 mph N/A   Overcast
10:56 AM 59.9 °F 57.9 °F 93% 29.95 in 10.0 mi East 16.1 mph 26.5 mph 0.07 in   Overcast
11:56 AM - - N/A% 30.04 in 10.0 mi WNW 3.5 mph - N/A   Mostly Cloudy
12:01 PM 62.6 °F 59.0 °F 88% 30.03 in 10.0 mi NW 4.6 mph - N/A Rain Light Rain
12:06 PM 62.6 °F 59.0 °F 88% 30.03 in 9.0 mi North 3.5 mph - N/A Rain Rain
12:07 PM 62.6 °F 59.0 °F 88% 30.03 in 9.0 mi North 4.6 mph - N/A Rain Rain
12:16 PM 62.6 °F 59.0 °F 88% 30.03 in 10.0 mi North 3.5 mph - N/A Rain Light Rain
12:17 PM 62.6 °F 59.0 °F 88% 30.03 in 10.0 mi North 4.6 mph - N/A   Mostly Cloudy
12:20 PM 62.6 °F 59.0 °F 88% 30.03 in 10.0 mi North 5.8 mph - N/A   Overcast
12:24 PM 64.4 °F 59.0 °F 83% 30.01 in 10.0 mi NW 5.8 mph - N/A   Overcast
12:25 PM 64.4 °F 59.0 °F 83% 30.01 in 10.0 mi NW 4.6 mph - N/A   Light Drizzle
12:43 PM 64.4 °F 59.0 °F 83% 30.01 in 10.0 mi NE 5.8 mph - N/A Rain Light Rain
12:44 PM 64.4 °F 59.0 °F 83% 30.01 in 10.0 mi NE 4.6 mph - N/A   Overcast
12:56 PM 64.4 °F 59.2 °F 83% 30.01 in 10.0 mi NNE 4.6 mph - 0.00 in   Overcast
1:20 PM 66.2 °F 60.8 °F 83% 29.99 in 10.0 mi NNE 6.9 mph - N/A   Overcast
1:23 PM 66.2 °F 60.8 °F 83% 29.99 in 10.0 mi NNE 3.5 mph - N/A   Overcast
1:56 PM 66.7 °F 61.0 °F 82% 29.99 in 10.0 mi NNE 6.9 mph - N/A   Mostly Cloudy
1:57 PM 66.2 °F 60.8 °F 83% 29.99 in 10.0 mi NNE 6.9 mph - N/A   Mostly Cloudy
2:20 PM 68.0 °F 60.8 °F 78% 29.99 in 10.0 mi NNE 8.1 mph - N/A   Mostly Cloudy
2:56 PM 67.6 °F 60.8 °F 79% 29.95 in 10.0 mi NNE 9.2 mph - N/A   Mostly Cloudy
3:24 PM 68.0 °F 60.8 °F 78% 29.94 in 10.0 mi North 9.2 mph - N/A Rain Light Rain
3:56 PM 65.7 °F 62.1 °F 88% 29.93 in 9.0 mi NW 13.8 mph - 0.02 in Rain , Thunderstorm Heavy Rain
4:04 PM 64.4 °F 62.6 °F 94% 29.93 in 7.0 mi NW 17.3 mph - N/A Rain , Thunderstorm Heavy Rain
4:05 PM 64.4 °F 62.6 °F 94% 29.93 in 7.0 mi NW 18.4 mph - N/A Rain , Thunderstorm Heavy Rain
4:09 PM 64.4 °F 60.8 °F 88% 29.92 in 8.0 mi NW 18.4 mph - N/A Rain , Thunderstorm Heavy Rain
4:10 PM 64.4 °F 60.8 °F 88% 29.92 in 8.0 mi NW 20.7 mph 26.5 mph N/A Rain , Thunderstorm Heavy Thunderstorms and Rain
4:18 PM 62.6 °F 60.8 °F 94% 29.93 in 9.0 mi NW 18.4 mph 26.5 mph N/A Rain , Thunderstorm Thunderstorms and Rain
4:22 PM 62.6 °F 60.8 °F 94% 29.93 in 6.0 mi NW 20.7 mph 25.3 mph N/A Rain , Thunderstorm Heavy Thunderstorms and Rain
4:26 PM 62.6 °F 60.8 °F 94% 29.92 in 2.8 mi NW 19.6 mph 25.3 mph N/A Rain , Thunderstorm Heavy Thunderstorms and Rain
4:30 PM 62.6 °F 60.8 °F 94% 29.92 in 3.0 mi NW 18.4 mph - N/A Rain , Thunderstorm Heavy Thunderstorms and Rain
4:52 PM 62.6 °F 60.8 °F 94% 29.94 in 9.0 mi SSW 6.9 mph - N/A Rain , Thunderstorm Thunderstorms and Rain
4:53 PM 62.6 °F 60.8 °F 94% 29.94 in 9.0 mi SSW 6.9 mph - N/A Rain , Thunderstorm Thunderstorms and Rain
4:56 PM 61.7 °F 59.9 °F 94% 29.94 in 8.0 mi South 4.6 mph - 0.22 in Rain , Thunderstorm Thunderstorms and Rain
5:03 PM 62.6 °F 59.0 °F 88% 29.94 in 5.0 mi Calm Calm - N/A Rain , Thunderstorm Heavy Thunderstorms and Rain
5:11 PM 62.6 °F 57.2 °F 82% 29.93 in 4.0 mi WNW 17.3 mph 23.0 mph N/A Rain , Thunderstorm Heavy Thunderstorms and Rain
5:17 PM 62.6 °F 59.0 °F 88% 29.93 in 7.0 mi NNW 12.7 mph 23.0 mph N/A Rain , Thunderstorm Heavy Thunderstorms and Rain
5:30 PM 60.8 °F 59.0 °F 94% 29.92 in 6.0 mi North 11.5 mph - N/A Rain , Thunderstorm Thunderstorms and Rain
5:42 PM 60.8 °F 60.8 °F 100% 29.88 in 9.0 mi North 18.4 mph - N/A Rain Light Rain
5:56 PM 61.7 °F 60.3 °F 95% 29.88 in 10.0 mi North 17.3 mph - 0.11 in Rain Light Rain
6:16 PM 62.6 °F 60.8 °F 94% 29.88 in 10.0 mi North 18.4 mph 24.2 mph N/A   Overcast
6:25 PM 62.6 °F 60.8 °F 94% 29.87 in 10.0 mi North 13.8 mph 24.2 mph N/A Rain , Thunderstorm Light Rain
6:51 PM 62.6 °F 60.8 °F 94% 29.86 in 10.0 mi NNE 16.1 mph - N/A   Mostly Cloudy
6:56 PM 63.3 °F 61.5 °F 94% 29.86 in 10.0 mi NNE 13.8 mph - 0.01 in   Mostly Cloudy
7:01 PM 62.6 °F 60.8 °F 94% 29.86 in 10.0 mi NNE 13.8 mph - N/A Rain Light Rain
7:14 PM 64.4 °F 62.6 °F 94% 29.86 in 10.0 mi NE 11.5 mph - N/A   Overcast
7:33 PM 64.4 °F 62.6 °F 94% 29.84 in 10.0 mi NE 15.0 mph 20.7 mph N/A Rain , Thunderstorm Light Rain
7:46 PM 64.4 °F 62.6 °F 94% 29.83 in 8.0 mi NE 15.0 mph 20.7 mph N/A Rain Light Rain
7:56 PM 63.7 °F 62.4 °F 96% 29.83 in 10.0 mi NE 17.3 mph 21.9 mph 0.01 in Rain Light Rain
8:56 PM 64.2 °F 63.3 °F 97% 29.80 in 10.0 mi ENE 19.6 mph 25.3 mph 0.05 in Rain Light Rain
9:23 PM 64.4 °F 62.6 °F 94% 29.80 in 10.0 mi NE 17.3 mph - N/A   Overcast
9:33 PM 64.4 °F 62.6 °F 94% 29.80 in 10.0 mi NE 15.0 mph - N/A Rain Light Rain
9:42 PM 64.4 °F 62.6 °F 94% 29.81 in 10.0 mi NE 15.0 mph - N/A Rain , Thunderstorm Light Thunderstorms and Rain
9:56 PM 64.6 °F 62.8 °F 94% 29.80 in 10.0 mi ENE 15.0 mph - 0.02 in Rain , Thunderstorm Light Thunderstorms and Rain
10:01 PM 64.4 °F 62.6 °F 94% 29.80 in 8.0 mi NE 18.4 mph - N/A Rain , Thunderstorm Light Thunderstorms and Rain
10:17 PM 64.4 °F 62.6 °F 94% 29.81 in 10.0 mi ENE 10.4 mph - N/A Rain , Thunderstorm Light Thunderstorms and Rain
10:33 PM 64.4 °F 62.6 °F 94% 29.81 in 6.0 mi ENE 15.0 mph - N/A Rain , Thunderstorm Light Thunderstorms and Rain
10:43 PM 64.4 °F 62.6 °F 94% 29.81 in 1.6 mi ENE 13.8 mph - N/A Rain , Thunderstorm Heavy Thunderstorms and Rain
10:45 PM 64.4 °F 64.4 °F 100% 29.82 in 1.9 mi ENE 15.0 mph - N/A Rain , Thunderstorm Heavy Thunderstorms and Rain
10:46 PM 64.4 °F 62.6 °F 94% 29.82 in 2.2 mi ENE 15.0 mph - N/A Rain , Thunderstorm Thunderstorms and Rain
10:50 PM 64.4 °F 62.6 °F 94% 29.80 in 3.0 mi ENE 18.4 mph 23.0 mph N/A Rain , Thunderstorm Thunderstorms and Rain
10:56 PM 63.7 °F 63.3 °F 99% 29.79 in 3.0 mi NE 17.3 mph 23.0 mph 0.28 in Rain , Thunderstorm Thunderstorms and Rain
11:15 PM 64.4 °F 62.6 °F 94% 29.80 in 2.8 mi Calm Calm - N/A Rain , Thunderstorm Heavy Thunderstorms and Rain
11:18 PM 64.4 °F 62.6 °F 94% 29.81 in 1.8 mi East 5.8 mph - N/A Rain , Thunderstorm Heavy Thunderstorms and Rain
11:33 PM 64.4 °F 62.6 °F 94% 29.82 in 1.4 mi East 6.9 mph - N/A Rain , Thunderstorm Heavy Thunderstorms and Rain
11:36 PM 62.6 °F 62.6 °F 100% 29.80 in 1.4 mi NNE 4.6 mph - N/A Rain , Thunderstorm Heavy Thunderstorms and Rain
11:42 PM 62.6 °F 62.6 °F 100% 29.78 in 1.5 mi North 8.1 mph - N/A Rain Heavy Rain
11:47 PM 62.6 °F 62.6 °F 100% 29.78 in 2.0 mi NNE 10.4 mph - N/A Rain Heavy Rain
11:50 PM 62.6 °F 62.6 °F 100% 29.77 in 2.2 mi North 10.4 mph - N/A Rain Heavy Rain
11:51 PM 62.6 °F 62.6 °F 100% 29.77 in 2.5 mi North 11.5 mph - N/A Rain , Thunderstorm Heavy Thunderstorms and Rain
11:53 PM 62.6 °F 62.6 °F 100% 29.77 in 3.0 mi NNW 9.2 mph - N/A Rain , Thunderstorm Heavy Thunderstorms and Rain
11:56 PM 62.2 °F 61.9 °F 99% 29.77 in 5.0 mi NNW 9.2 mph - 0.91 in Rain , Thunderstorm Heavy Thunderstorms and Rain